Location: Rowland
(34.5359°N, 79.2929°W)
Time: 14:26:32
(UTC+00:00)

Vanguard 2 - Visible Passes

Search period start: 03 October 2022 00:00
Search period end: 13 October 2022 00:00
Orbit: 552 x 2935 km, 32.9° (Epoch: 02 October)

Date Brightness Start Highest point End Pass type
(mag) Time Alt. Az. Time Alt. Az. Time Alt. Az.
03 Oct 11.1 01:17:05 10° W 01:31:39 33° SW 01:41:55 16° S visible
03 Oct 10.9 23:21:10 10° W 23:37:40 56° SSW 23:53:40 10° SE visible
04 Oct 11.3 01:35:41 10° W 01:48:25 25° SW 01:58:43 12° S visible
04 Oct 11.1 23:38:49 10° W 23:54:48 48° SSW 00:10:15 10° SE visible
05 Oct 11.5 01:55:10 10° W 02:05:10 18° SW 02:14:13 10° S visible
05 Oct 11.3 23:56:40 10° W 00:11:51 39° SW 00:26:31 10° SSE visible
06 Oct 11.8 02:17:00 10° WSW 02:21:55 12° SW 02:26:37 10° SSW visible
07 Oct 11.5 00:14:49 10° W 00:28:49 31° SW 00:42:24 10° SSE visible
08 Oct 11.7 00:33:30 10° W 00:45:44 24° SW 00:57:41 10° S visible
09 Oct 11.8 00:53:11 10° WSW 01:02:40 17° SW 01:11:59 10° SSW visible
09 Oct 11.6 22:55:15 10° W 23:08:54 36° SW 23:24:03 10° SSE visible
10 Oct 12.1 01:16:06 10° WSW 01:19:38 11° SW 01:23:08 10° SW visible
10 Oct 11.8 23:13:28 10° W 23:26:00 29° SW 23:39:44 10° SSE visible
11 Oct 11.9 23:32:19 10° W 23:43:06 21° SW 23:54:42 10° S visible
